Regional Weather Roundup
Issued by NWS

Home | Current Version | Previous Version | Text Only | Print | Product List | Glossary On
Versions: 1 2 3 4 5 6 7 8 9 10 11 12 13 14 15 16 17 18 19 20 21 22 23 24 25 26 27 28 29 30 31 32 33 34 35 36 37 38 39 40 41 42 43 44 45 46 47 48 49 50
000
ASUS44 KJAN 250410
RWRMS

MISSISSIPPI HOURLY WEATHER ROUNDUP
NATIONAL WEATHER SERVICE JACKSON MS
1100 PM CDT FRI APR 24 2015

NOTE: "FAIR: INDICATES FEW OR NO CLOUDS BELOW 12,000 FEET WITH NO
SIGNIFICANT WEATHER AND/OR OBSTRUCTIONS TO VISIBILITY.

MSZ001>002-007>008-010>013-018>021-025>028-034>036-250500-
NORTHWEST MISSISSIPPI

CITY           SKY/WX    TMP DP  RH WIND       PRES   REMARKS
CLARKSDALE       N/A     57  57 100 NE15      29.80F
CLEVELAND      CLOUDY    60  60 100 E14G21    29.74F THUNDER
GREENWOOD      TSTM      65  61  87 VRB6      29.78F
GREENVILLE     CLOUDY    62  61  96 E7        29.73F
OLIVE BRANCH   MOCLDY    54 N/A N/A SE5       29.87F
OXFORD         FAIR      55  54  94 E7        29.85F FOG
TUNICA         CLOUDY    55  55 100 NE7       29.85F
$$

MSZ003>006-009-014>017-022>024-029>033-037>039-250500-
NORTHEAST MISSISSIPPI

CITY           SKY/WX    TMP DP  RH WIND       PRES   REMARKS
COLUMBUS AFB   LGT RAIN  62  58  86 SE2       29.86R
CORINTH        RAIN      55  54  94 E5        29.90F
GOLDN TRIANGLE CLOUDY    64  55  72 SE5       29.86R
STARKVILLE     RAIN      61  59  94 SE3       29.87R
TUPELO         LGT RAIN  60  57  89 CALM      29.89R
$$

MSZ040-058-250500-
CENTRAL MISSISSIPPI

CITY           SKY/WX    TMP DP  RH WIND       PRES   REMARKS
JACKSON INTL   CLOUDY    71  66  84 S12       29.79S
JACKSON HAWKNS CLOUDY    71  66  84 S10       29.79F
MERIDIAN KEY   PTCLDY    68  60  75 SE7       29.83F
MERIDIAN NAS   PTCLDY    67  60  78 SE6       29.84F
RAYMOND        CLOUDY    72  66  83 SE9G18    29.79S
VICKSBURG      CLOUDY    72  68  87 S12       29.77S
$$

MSZ059>079-250500-
SOUTH MISSISSIPPI

CITY           SKY/WX    TMP DP  RH WIND       PRES   REMARKS
BROOKHAVEN     CLOUDY    72  72 100 SE12      29.82S
HATTIESBURG    CLOUDY    73  69  87 SE14      29.83F
MCCOMB         CLOUDY    71  70  96 S8        29.82R
NATCHEZ        CLOUDY    72  68  88 S13       29.80R
PINE BELT      CLOUDY    72  66  83 SE9       29.84S
$$

MSZ080>082-250500-
COASTAL MISSISSIPPI

CITY           SKY/WX    TMP DP  RH WIND       PRES   REMARKS
BILOXI         MOCLDY    73  70  89 S12       29.83F
PASCAGOULA     CLOUDY    74  72  93 SE7       29.85F
GULFPORT       PTCLDY    73  69  87 S6        29.83F
$$


USA.gov is the U.S. government's official web portal to all federal, state and local government web resources and services.